Year,Month,Day,Hour,Minute,Value (Times are PST for temperature in C)
2020,06,28,00,00,13.20
2020,06,28,00,01,13.20
2020,06,28,00,02,13.20
2020,06,28,00,03,13.10
2020,06,28,00,04,13.10
2020,06,28,00,05,13.10
2020,06,28,00,06,13.10
2020,06,28,00,07,13.10
2020,06,28,00,08,13.00
2020,06,28,00,09,13.00
2020,06,28,00,10,13.00
2020,06,28,00,11,13.00
2020,06,28,00,12,13.00
2020,06,28,00,13,13.00
2020,06,28,00,14,12.90
2020,06,28,00,15,12.90
2020,06,28,00,16,12.90
2020,06,28,00,17,12.80
2020,06,28,00,18,12.80
2020,06,28,00,19,12.80
2020,06,28,00,20,12.70
2020,06,28,00,21,12.70
2020,06,28,00,22,12.70
2020,06,28,00,23,12.70
2020,06,28,00,24,12.60
2020,06,28,00,25,12.60
2020,06,28,00,26,12.50
2020,06,28,00,27,12.50
2020,06,28,00,28,12.50
2020,06,28,00,29,12.40
2020,06,28,00,30,12.40
2020,06,28,00,31,12.40
2020,06,28,00,32,12.40
2020,06,28,00,33,12.40
2020,06,28,00,34,12.30
2020,06,28,00,35,12.30
2020,06,28,00,36,12.20
2020,06,28,00,37,12.20
2020,06,28,00,38,12.10
2020,06,28,00,39,12.10
2020,06,28,00,40,12.10
2020,06,28,00,41,12.10
2020,06,28,00,42,12.00
2020,06,28,00,43,12.00
2020,06,28,00,44,12.00
2020,06,28,00,45,12.00
2020,06,28,00,46,11.90
2020,06,28,00,47,11.90
2020,06,28,00,48,11.90
2020,06,28,00,49,11.90
2020,06,28,00,50,11.80
2020,06,28,00,51,11.80
2020,06,28,00,52,11.80
2020,06,28,00,53,11.80
2020,06,28,00,54,11.90
2020,06,28,00,55,12.00
2020,06,28,00,56,12.00
2020,06,28,00,57,12.00
2020,06,28,00,58,12.00
2020,06,28,00,59,12.10
2020,06,28,01,00,12.10
2020,06,28,01,01,12.10
2020,06,28,01,02,12.10
2020,06,28,01,03,12.20
2020,06,28,01,04,12.20
2020,06,28,01,05,12.20
2020,06,28,01,06,12.20
2020,06,28,01,07,12.20
2020,06,28,01,08,12.20
2020,06,28,01,09,12.20
2020,06,28,01,10,12.10
2020,06,28,01,11,12.10
2020,06,28,01,12,12.10
2020,06,28,01,13,12.10
2020,06,28,01,14,12.00
2020,06,28,01,15,12.00
2020,06,28,01,16,12.00
2020,06,28,01,17,11.90
2020,06,28,01,18,11.90
2020,06,28,01,19,11.90
2020,06,28,01,20,11.90
2020,06,28,01,21,11.90
2020,06,28,01,22,11.90
2020,06,28,01,23,11.90
2020,06,28,01,24,11.90
2020,06,28,01,25,11.80
2020,06,28,01,26,11.80
2020,06,28,01,27,11.80
2020,06,28,01,28,11.80
2020,06,28,01,29,11.80
2020,06,28,01,30,11.80
2020,06,28,01,31,11.80
2020,06,28,01,32,11.80
2020,06,28,01,33,11.80
2020,06,28,01,34,11.80
2020,06,28,01,35,11.80
2020,06,28,01,36,11.80
2020,06,28,01,37,11.70
2020,06,28,01,38,11.70
2020,06,28,01,39,11.70
2020,06,28,01,40,11.60
2020,06,28,01,41,11.60
2020,06,28,01,42,11.60
2020,06,28,01,43,11.60
2020,06,28,01,44,11.50
2020,06,28,01,45,11.50
2020,06,28,01,46,11.50
2020,06,28,01,47,11.50
2020,06,28,01,48,11.40
2020,06,28,01,49,11.40
2020,06,28,01,50,11.40
2020,06,28,01,51,11.40
2020,06,28,01,52,11.30
2020,06,28,01,53,11.30
2020,06,28,01,54,11.30
2020,06,28,01,55,11.30
2020,06,28,01,56,11.30
2020,06,28,01,57,11.30
2020,06,28,01,58,11.20
2020,06,28,01,59,11.20
2020,06,28,02,00,11.20
2020,06,28,02,01,11.20
2020,06,28,02,02,11.20
2020,06,28,02,03,11.10
2020,06,28,02,04,11.10
2020,06,28,02,05,11.10
2020,06,28,02,06,11.00
2020,06,28,02,07,11.00
2020,06,28,02,08,11.00
2020,06,28,02,09,10.90
2020,06,28,02,10,10.90
2020,06,28,02,11,10.90
2020,06,28,02,12,10.90
2020,06,28,02,13,10.80
2020,06,28,02,14,10.80
2020,06,28,02,15,10.80
2020,06,28,02,16,10.80
2020,06,28,02,17,10.80
2020,06,28,02,18,10.80
2020,06,28,02,19,10.70
2020,06,28,02,20,10.70
2020,06,28,02,21,10.70
2020,06,28,02,22,10.70
2020,06,28,02,23,10.60
2020,06,28,02,24,10.60
2020,06,28,02,25,10.60
2020,06,28,02,26,10.60
2020,06,28,02,27,10.60
2020,06,28,02,28,10.60
2020,06,28,02,29,10.50
2020,06,28,02,30,10.50
2020,06,28,02,31,10.50
2020,06,28,02,32,10.50
2020,06,28,02,33,10.40
2020,06,28,02,34,10.40
2020,06,28,02,35,10.40
2020,06,28,02,36,10.40
2020,06,28,02,37,10.40
2020,06,28,02,38,10.30
2020,06,28,02,39,10.30
2020,06,28,02,40,10.30
2020,06,28,02,41,10.30
2020,06,28,02,42,10.30
2020,06,28,02,43,10.30
2020,06,28,02,44,10.30
2020,06,28,02,45,10.30
2020,06,28,02,46,10.30
2020,06,28,02,47,10.30
2020,06,28,02,48,10.30
2020,06,28,02,49,10.30
2020,06,28,02,50,10.30
2020,06,28,02,51,10.30
2020,06,28,02,52,10.30
2020,06,28,02,53,10.30
2020,06,28,02,54,10.30
2020,06,28,02,55,10.30
2020,06,28,02,56,10.20
2020,06,28,02,57,10.20
2020,06,28,02,58,10.20
2020,06,28,02,59,10.20
2020,06,28,03,00,10.20
2020,06,28,03,01,10.30
2020,06,28,03,02,10.30
2020,06,28,03,03,10.30
2020,06,28,03,04,10.30
2020,06,28,03,05,10.30
2020,06,28,03,06,10.30
2020,06,28,03,07,10.30
2020,06,28,03,08,10.30
2020,06,28,03,09,10.30
2020,06,28,03,10,10.20
2020,06,28,03,11,10.20
2020,06,28,03,12,10.20
2020,06,28,03,13,10.20
2020,06,28,03,14,10.20
2020,06,28,03,15,10.20
2020,06,28,03,16,10.20
2020,06,28,03,17,10.20
2020,06,28,03,18,10.20
2020,06,28,03,19,10.20
2020,06,28,03,20,10.20
2020,06,28,03,21,10.20
2020,06,28,03,22,10.10
2020,06,28,03,23,10.10
2020,06,28,03,24,10.10
2020,06,28,03,25,10.10
2020,06,28,03,26,10.10
2020,06,28,03,27,10.00
2020,06,28,03,28,10.00
2020,06,28,03,29,10.00
2020,06,28,03,30,10.00
2020,06,28,03,31,10.00
2020,06,28,03,32,10.00
2020,06,28,03,33,9.90
2020,06,28,03,34,9.90
2020,06,28,03,35,9.90
2020,06,28,03,36,9.90
2020,06,28,03,37,9.90
2020,06,28,03,38,9.80
2020,06,28,03,39,9.80
2020,06,28,03,40,9.80
2020,06,28,03,41,9.80
2020,06,28,03,42,9.80
2020,06,28,03,43,9.70
2020,06,28,03,44,9.70
2020,06,28,03,45,9.70
2020,06,28,03,46,9.70
2020,06,28,03,47,9.70
2020,06,28,03,48,9.70
2020,06,28,03,49,9.70
2020,06,28,03,50,9.70
2020,06,28,03,51,9.60
2020,06,28,03,52,9.60
2020,06,28,03,53,9.60
2020,06,28,03,54,9.60
2020,06,28,03,55,9.60
2020,06,28,03,56,9.60
2020,06,28,03,57,9.60
2020,06,28,03,58,9.60
2020,06,28,03,59,9.60
2020,06,28,04,00,9.60
2020,06,28,04,01,9.60
2020,06,28,04,02,9.60
2020,06,28,04,03,9.60
2020,06,28,04,04,9.60
2020,06,28,04,05,9.60
2020,06,28,04,06,9.60
2020,06,28,04,07,9.60
2020,06,28,04,08,9.60
2020,06,28,04,09,9.60
2020,06,28,04,10,9.60
2020,06,28,04,11,9.60
2020,06,28,04,12,9.50
2020,06,28,04,13,9.50
2020,06,28,04,14,9.50
2020,06,28,04,15,9.50
2020,06,28,04,16,9.50
2020,06,28,04,17,9.50
2020,06,28,04,18,9.50
2020,06,28,04,19,9.50
2020,06,28,04,20,9.50
2020,06,28,04,21,9.50
2020,06,28,04,22,9.40
2020,06,28,04,23,9.40
2020,06,28,04,24,9.40
2020,06,28,04,25,9.40
2020,06,28,04,26,9.40
2020,06,28,04,27,9.40
2020,06,28,04,28,9.40
2020,06,28,04,29,9.40
2020,06,28,04,30,9.40
2020,06,28,04,31,9.40
2020,06,28,04,32,9.40
2020,06,28,04,33,9.40
2020,06,28,04,34,9.40
2020,06,28,04,35,9.40
2020,06,28,04,36,9.40
2020,06,28,04,37,9.40
2020,06,28,04,38,9.40
2020,06,28,04,39,9.40
2020,06,28,04,40,9.30
2020,06,28,04,41,9.30
2020,06,28,04,42,9.30
2020,06,28,04,43,9.30
2020,06,28,04,44,9.30
2020,06,28,04,45,9.30
2020,06,28,04,46,9.30
2020,06,28,04,47,9.30
2020,06,28,04,48,9.30
2020,06,28,04,49,9.30
2020,06,28,04,50,9.30
2020,06,28,04,51,9.30
2020,06,28,04,52,9.30
2020,06,28,04,53,9.30
2020,06,28,04,54,9.30
2020,06,28,04,55,9.30
2020,06,28,04,56,9.30
2020,06,28,04,57,9.30
2020,06,28,04,58,9.30
2020,06,28,04,59,9.30
2020,06,28,05,00,9.30
2020,06,28,05,01,9.30
2020,06,28,05,02,9.30
2020,06,28,05,03,9.30
2020,06,28,05,04,9.30
2020,06,28,05,05,9.20
2020,06,28,05,06,9.20
2020,06,28,05,07,9.20
2020,06,28,05,08,9.20
2020,06,28,05,09,9.20
2020,06,28,05,10,9.20
2020,06,28,05,11,9.20
2020,06,28,05,12,9.10
2020,06,28,05,13,9.10
2020,06,28,05,14,9.10
2020,06,28,05,15,9.20
2020,06,28,05,16,9.20
2020,06,28,05,17,9.20
2020,06,28,05,18,9.20
2020,06,28,05,19,9.20
2020,06,28,05,20,9.20
2020,06,28,05,21,9.20
2020,06,28,05,22,9.20
2020,06,28,05,23,9.20
2020,06,28,05,24,9.20
2020,06,28,05,25,9.20
2020,06,28,05,26,9.20
2020,06,28,05,27,9.20
2020,06,28,05,28,9.20
2020,06,28,05,29,9.20
2020,06,28,05,30,9.20
2020,06,28,05,31,9.20
2020,06,28,05,32,9.10
2020,06,28,05,33,9.10
2020,06,28,05,34,9.10
2020,06,28,05,35,9.10
2020,06,28,05,36,9.10
2020,06,28,05,37,9.10
2020,06,28,05,38,9.10
2020,06,28,05,39,9.10
2020,06,28,05,40,9.20
2020,06,28,05,41,9.20
2020,06,28,05,42,9.20
2020,06,28,05,43,9.20
2020,06,28,05,44,9.20
2020,06,28,05,45,9.20
2020,06,28,05,46,9.20
2020,06,28,05,47,9.30
2020,06,28,05,48,9.20
2020,06,28,05,49,9.20
2020,06,28,05,50,9.20
2020,06,28,05,51,9.20
2020,06,28,05,52,9.20
2020,06,28,05,53,9.20
2020,06,28,05,54,9.20
2020,06,28,05,55,9.20
2020,06,28,05,56,9.20
2020,06,28,05,57,9.20
2020,06,28,05,58,9.20
2020,06,28,05,59,9.20
2020,06,28,06,00,9.20
2020,06,28,06,01,9.20
2020,06,28,06,02,9.20
2020,06,28,06,03,9.20
2020,06,28,06,04,9.30
2020,06,28,06,05,9.30
2020,06,28,06,06,9.30
2020,06,28,06,07,9.20
2020,06,28,06,08,9.20
2020,06,28,06,09,9.20
2020,06,28,06,10,9.20
2020,06,28,06,11,9.30
2020,06,28,06,12,9.30
2020,06,28,06,13,9.30
2020,06,28,06,14,9.20
2020,06,28,06,15,9.20
2020,06,28,06,16,9.20
2020,06,28,06,17,9.20
2020,06,28,06,18,9.20
2020,06,28,06,19,9.20
2020,06,28,06,20,9.20
2020,06,28,06,21,9.20
2020,06,28,06,22,9.20
2020,06,28,06,23,9.20
2020,06,28,06,24,9.20
2020,06,28,06,25,9.20
2020,06,28,06,26,9.20
2020,06,28,06,27,9.20
2020,06,28,06,28,9.20
2020,06,28,06,29,9.20
2020,06,28,06,30,9.20
2020,06,28,06,31,9.20
2020,06,28,06,32,9.20
2020,06,28,06,33,9.20
2020,06,28,06,34,9.20
2020,06,28,06,35,9.20
2020,06,28,06,36,9.20
2020,06,28,06,37,9.20
2020,06,28,06,38,9.20
2020,06,28,06,39,9.20
2020,06,28,06,40,9.20
2020,06,28,06,41,9.20
2020,06,28,06,42,9.20
2020,06,28,06,43,9.30
2020,06,28,06,44,9.30
2020,06,28,06,45,9.30
2020,06,28,06,46,9.40
2020,06,28,06,47,9.40
2020,06,28,06,48,9.40
2020,06,28,06,49,9.40
2020,06,28,06,50,9.50
2020,06,28,06,51,9.50
2020,06,28,06,52,9.50
2020,06,28,06,53,9.60
2020,06,28,06,54,9.60
2020,06,28,06,55,9.60
2020,06,28,06,56,9.60
2020,06,28,06,57,9.60
2020,06,28,06,58,9.70
2020,06,28,06,59,9.70
2020,06,28,07,00,9.70
2020,06,28,07,01,9.70
2020,06,28,07,02,9.70
2020,06,28,07,03,9.80
2020,06,28,07,04,9.80
2020,06,28,07,05,9.80
2020,06,28,07,06,9.80
2020,06,28,07,07,9.80
2020,06,28,07,08,9.90
2020,06,28,07,09,9.90
2020,06,28,07,10,9.90
2020,06,28,07,11,9.90
2020,06,28,07,12,9.90
2020,06,28,07,13,9.90
2020,06,28,07,14,9.90
2020,06,28,07,15,9.90
2020,06,28,07,16,10.00
2020,06,28,07,17,10.00
2020,06,28,07,18,10.00
2020,06,28,07,19,10.00
2020,06,28,07,20,10.00
2020,06,28,07,21,10.00
2020,06,28,07,22,10.00
2020,06,28,07,23,10.10
2020,06,28,07,24,10.10
2020,06,28,07,25,10.10
2020,06,28,07,26,10.10
2020,06,28,07,27,10.10
2020,06,28,07,28,10.20
2020,06,28,07,29,10.20
2020,06,28,07,30,10.20
2020,06,28,07,31,10.20
2020,06,28,07,32,10.20
2020,06,28,07,33,10.20
2020,06,28,07,34,10.20
2020,06,28,07,35,10.20
2020,06,28,07,36,10.30
2020,06,28,07,37,10.30
2020,06,28,07,38,10.30
2020,06,28,07,39,10.30
2020,06,28,07,40,10.30
2020,06,28,07,41,10.40
2020,06,28,07,42,10.50
2020,06,28,07,43,10.50
2020,06,28,07,44,10.60
2020,06,28,07,45,10.70
2020,06,28,07,46,10.80
2020,06,28,07,47,10.90
2020,06,28,07,48,11.00
2020,06,28,07,49,11.20
2020,06,28,07,50,11.30
2020,06,28,07,51,11.40
2020,06,28,07,52,11.50
2020,06,28,07,53,11.60
2020,06,28,07,54,11.80
2020,06,28,07,55,11.90
2020,06,28,07,56,12.00
2020,06,28,07,57,12.10
2020,06,28,07,58,12.20
2020,06,28,07,59,12.40
2020,06,28,08,00,12.50
2020,06,28,08,01,12.60
2020,06,28,08,02,12.80
2020,06,28,08,03,12.90
2020,06,28,08,04,13.00
2020,06,28,08,05,13.10
2020,06,28,08,06,13.20
2020,06,28,08,07,13.30
2020,06,28,08,08,13.40
2020,06,28,08,09,13.50
2020,06,28,08,10,13.60
2020,06,28,08,11,13.60
2020,06,28,08,12,13.70
2020,06,28,08,13,13.80
2020,06,28,08,14,13.90
2020,06,28,08,15,14.00
2020,06,28,08,16,14.20
2020,06,28,08,17,14.30
2020,06,28,08,18,14.40
2020,06,28,08,19,14.50
2020,06,28,08,20,14.60
2020,06,28,08,21,14.70
2020,06,28,08,22,14.70
2020,06,28,08,23,14.80
2020,06,28,08,24,14.80
2020,06,28,08,25,14.90
2020,06,28,08,26,14.90
2020,06,28,08,27,15.00
2020,06,28,08,28,15.00
2020,06,28,08,29,15.00
2020,06,28,08,30,15.10
2020,06,28,08,31,15.10
2020,06,28,08,32,15.10
2020,06,28,08,33,15.10
2020,06,28,08,34,15.10
2020,06,28,08,35,15.10
2020,06,28,08,36,15.10
2020,06,28,08,37,15.10
2020,06,28,08,38,15.10
2020,06,28,08,39,15.20
2020,06,28,08,40,15.20
2020,06,28,08,41,15.20
2020,06,28,08,42,15.20
2020,06,28,08,43,15.20
2020,06,28,08,44,15.20
2020,06,28,08,45,15.30
2020,06,28,08,46,15.30
2020,06,28,08,47,15.20
2020,06,28,08,48,15.20
2020,06,28,08,49,15.20
2020,06,28,08,50,15.20
2020,06,28,08,51,15.20
2020,06,28,08,52,15.20
2020,06,28,08,53,15.20
2020,06,28,08,54,15.30
2020,06,28,08,55,15.30
2020,06,28,08,56,15.40
2020,06,28,08,57,15.40
2020,06,28,08,58,15.50
2020,06,28,08,59,15.50
2020,06,28,09,00,15.50
2020,06,28,09,01,15.60
2020,06,28,09,02,15.60
2020,06,28,09,03,15.70
2020,06,28,09,04,15.70
2020,06,28,09,05,15.80
2020,06,28,09,06,15.80
2020,06,28,09,07,15.80
2020,06,28,09,08,15.80
2020,06,28,09,09,15.80
2020,06,28,09,10,15.80
2020,06,28,09,11,15.70
2020,06,28,09,12,15.70
2020,06,28,09,13,15.70
2020,06,28,09,14,15.70
2020,06,28,09,15,15.60
2020,06,28,09,16,15.50
2020,06,28,09,17,15.50
2020,06,28,09,18,15.50
2020,06,28,09,19,15.50
2020,06,28,09,20,15.40
2020,06,28,09,21,15.40
2020,06,28,09,22,15.50
2020,06,28,09,23,15.50
2020,06,28,09,24,15.50
2020,06,28,09,25,15.50
2020,06,28,09,26,15.50
2020,06,28,09,27,15.60
2020,06,28,09,28,15.60
2020,06,28,09,29,15.70
2020,06,28,09,30,15.70
2020,06,28,09,31,15.70
2020,06,28,09,32,15.70
2020,06,28,09,33,15.80
2020,06,28,09,34,15.80
2020,06,28,09,35,15.80
2020,06,28,09,36,15.90
2020,06,28,09,37,15.80
2020,06,28,09,38,15.80
2020,06,28,09,39,15.80
2020,06,28,09,40,15.80
2020,06,28,09,41,15.90
2020,06,28,09,42,15.90
2020,06,28,09,43,15.90
2020,06,28,09,44,15.90
2020,06,28,09,45,16.00
2020,06,28,09,46,16.00
2020,06,28,09,47,16.10
2020,06,28,09,48,16.10
2020,06,28,09,49,16.10
2020,06,28,09,50,16.10
2020,06,28,09,51,16.10
2020,06,28,09,52,16.00
2020,06,28,09,53,16.00
2020,06,28,09,54,16.00
2020,06,28,09,55,15.90
2020,06,28,09,56,16.00
2020,06,28,09,57,16.00
2020,06,28,09,58,16.10
2020,06,28,09,59,16.10
2020,06,28,10,00,16.20
2020,06,28,10,01,16.20
2020,06,28,10,02,16.20
2020,06,28,10,03,16.20
2020,06,28,10,04,16.20
2020,06,28,10,05,16.10
2020,06,28,10,06,16.10
2020,06,28,10,07,16.10
2020,06,28,10,08,16.10
2020,06,28,10,09,16.10
2020,06,28,10,10,16.10
2020,06,28,10,11,16.10
2020,06,28,10,12,16.20
2020,06,28,10,13,16.20
2020,06,28,10,14,16.20
2020,06,28,10,15,16.20
2020,06,28,10,16,16.10
2020,06,28,10,17,16.10
2020,06,28,10,18,16.00
2020,06,28,10,19,16.00
2020,06,28,10,20,15.90
2020,06,28,10,21,15.90
2020,06,28,10,22,15.90
2020,06,28,10,23,15.90
2020,06,28,10,24,15.90
2020,06,28,10,25,15.90
2020,06,28,10,26,16.00
2020,06,28,10,27,16.00
2020,06,28,10,28,16.10
2020,06,28,10,29,16.10
2020,06,28,10,30,16.10
2020,06,28,10,31,16.10
2020,06,28,10,32,16.10
2020,06,28,10,33,16.10
2020,06,28,10,34,16.10
2020,06,28,10,35,16.10
2020,06,28,10,36,16.20
2020,06,28,10,37,16.20
2020,06,28,10,38,16.20
2020,06,28,10,39,16.20
2020,06,28,10,40,16.30
2020,06,28,10,41,16.30
2020,06,28,10,42,16.30
2020,06,28,10,43,16.30
2020,06,28,10,44,16.40
2020,06,28,10,45,16.50
2020,06,28,10,46,16.50
2020,06,28,10,47,16.60
2020,06,28,10,48,16.60
2020,06,28,10,49,16.70
2020,06,28,10,50,16.70
2020,06,28,10,51,16.70
2020,06,28,10,52,16.70
2020,06,28,10,53,16.70
2020,06,28,10,54,16.80
2020,06,28,10,55,16.70
2020,06,28,10,56,16.80
2020,06,28,10,57,16.80
2020,06,28,10,58,16.80
2020,06,28,10,59,16.80
2020,06,28,11,00,16.90
2020,06,28,11,01,16.90
2020,06,28,11,02,16.90
2020,06,28,11,03,16.80
2020,06,28,11,04,16.80
2020,06,28,11,05,16.80
2020,06,28,11,06,16.70
2020,06,28,11,07,16.60
2020,06,28,11,08,16.50
2020,06,28,11,09,16.50
2020,06,28,11,10,16.60
2020,06,28,11,11,16.60
2020,06,28,11,12,16.60
2020,06,28,11,13,16.70
2020,06,28,11,14,16.70
2020,06,28,11,15,16.70
2020,06,28,11,16,16.70
2020,06,28,11,17,16.70
2020,06,28,11,18,16.70
2020,06,28,11,19,16.80
2020,06,28,11,20,16.80
2020,06,28,11,21,16.90
2020,06,28,11,22,16.90
2020,06,28,11,23,16.90
2020,06,28,11,24,16.90
2020,06,28,11,25,17.00
2020,06,28,11,26,17.00
2020,06,28,11,27,17.00
2020,06,28,11,28,17.10
2020,06,28,11,29,17.20
2020,06,28,11,30,17.20
2020,06,28,11,31,17.30
2020,06,28,11,32,17.40
2020,06,28,11,33,17.40
2020,06,28,11,34,17.50
2020,06,28,11,35,17.50
2020,06,28,11,36,17.50
2020,06,28,11,37,17.50
2020,06,28,11,38,17.60
2020,06,28,11,39,17.60
2020,06,28,11,40,17.60
2020,06,28,11,41,17.60
2020,06,28,11,42,17.70
2020,06,28,11,43,17.70
2020,06,28,11,44,17.70
2020,06,28,11,45,17.70
2020,06,28,11,46,17.70
2020,06,28,11,47,17.80
2020,06,28,11,48,17.90
2020,06,28,11,49,18.00
2020,06,28,11,50,18.10
2020,06,28,11,51,18.10
2020,06,28,11,52,18.10
2020,06,28,11,53,18.10
2020,06,28,11,54,18.10
2020,06,28,11,55,18.10
2020,06,28,11,56,18.10
2020,06,28,11,57,18.10
2020,06,28,11,58,18.10
2020,06,28,11,59,18.10
2020,06,28,12,00,18.10
2020,06,28,12,01,18.10
2020,06,28,12,02,18.20
2020,06,28,12,03,18.20
2020,06,28,12,04,18.20
2020,06,28,12,05,18.10
2020,06,28,12,06,18.10
2020,06,28,12,07,18.00
2020,06,28,12,08,18.00
2020,06,28,12,09,18.00
2020,06,28,12,10,18.00
2020,06,28,12,11,18.00
2020,06,28,12,12,17.90
2020,06,28,12,13,18.00
2020,06,28,12,14,18.00
2020,06,28,12,15,18.00
2020,06,28,12,16,18.10
2020,06,28,12,17,18.10
2020,06,28,12,18,18.20
2020,06,28,12,19,18.20
2020,06,28,12,20,18.30
2020,06,28,12,21,18.30
2020,06,28,12,22,18.30
2020,06,28,12,23,18.30
2020,06,28,12,24,18.30
2020,06,28,12,25,18.20
2020,06,28,12,26,18.20
2020,06,28,12,27,18.10
2020,06,28,12,28,18.10
2020,06,28,12,29,18.00
2020,06,28,12,30,17.90
2020,06,28,12,31,17.80
2020,06,28,12,32,17.90
2020,06,28,12,33,17.90
2020,06,28,12,34,18.10
2020,06,28,12,35,18.20
2020,06,28,12,36,18.30
2020,06,28,12,37,18.30
2020,06,28,12,38,18.40
2020,06,28,12,39,18.40
2020,06,28,12,40,18.40
2020,06,28,12,41,18.40
2020,06,28,12,42,18.40
2020,06,28,12,43,18.40
2020,06,28,12,44,18.40
2020,06,28,12,45,18.30
2020,06,28,12,46,18.30
2020,06,28,12,47,18.30
2020,06,28,12,48,18.40
2020,06,28,12,49,18.40
2020,06,28,12,50,18.50
2020,06,28,12,51,18.60
2020,06,28,12,52,18.60
2020,06,28,12,53,18.60
2020,06,28,12,54,18.70
2020,06,28,12,55,18.60
2020,06,28,12,56,18.60
2020,06,28,12,57,18.40
2020,06,28,12,58,18.40
2020,06,28,12,59,18.30
2020,06,28,13,00,18.30
2020,06,28,13,01,18.30
2020,06,28,13,02,18.30
2020,06,28,13,03,18.40
2020,06,28,13,04,18.50
2020,06,28,13,05,18.60
2020,06,28,13,06,18.70
2020,06,28,13,07,18.70
2020,06,28,13,08,18.70
2020,06,28,13,09,18.60
2020,06,28,13,10,18.60
2020,06,28,13,11,18.60
2020,06,28,13,12,18.60
2020,06,28,13,13,18.70
2020,06,28,13,14,18.80
2020,06,28,13,15,18.90
2020,06,28,13,16,19.00
2020,06,28,13,17,19.10
2020,06,28,13,18,19.10
2020,06,28,13,19,19.10
2020,06,28,13,20,19.20
2020,06,28,13,21,19.30
2020,06,28,13,22,19.30
2020,06,28,13,23,19.30
2020,06,28,13,24,19.30
2020,06,28,13,25,19.30
2020,06,28,13,26,19.30
2020,06,28,13,27,19.30
2020,06,28,13,28,19.30
2020,06,28,13,29,19.40
2020,06,28,13,30,19.40
2020,06,28,13,31,19.50
2020,06,28,13,32,19.60
2020,06,28,13,33,19.60
2020,06,28,13,34,19.60
2020,06,28,13,35,19.60
2020,06,28,13,36,19.60
2020,06,28,13,37,19.60
2020,06,28,13,38,19.60
2020,06,28,13,39,19.60
2020,06,28,13,40,19.70
2020,06,28,13,41,19.70
2020,06,28,13,42,19.60
2020,06,28,13,43,19.50
2020,06,28,13,44,19.40
2020,06,28,13,45,19.40
2020,06,28,13,46,19.40
2020,06,28,13,47,19.50
2020,06,28,13,48,19.60
2020,06,28,13,49,19.70
2020,06,28,13,50,19.70
2020,06,28,13,51,19.80
2020,06,28,13,52,19.90
2020,06,28,13,53,20.00
2020,06,28,13,54,20.20
2020,06,28,13,55,20.30
2020,06,28,13,56,20.40
2020,06,28,13,57,20.40
2020,06,28,13,58,20.40
2020,06,28,13,59,20.40
2020,06,28,14,00,20.40
2020,06,28,14,01,20.50
2020,06,28,14,02,20.40
2020,06,28,14,03,20.30
2020,06,28,14,04,20.20
2020,06,28,14,05,20.20
2020,06,28,14,06,20.20
2020,06,28,14,07,20.20
2020,06,28,14,08,20.30
2020,06,28,14,09,20.40
2020,06,28,14,10,20.40
2020,06,28,14,11,20.40
2020,06,28,14,12,20.30
2020,06,28,14,13,20.30
2020,06,28,14,14,20.20
2020,06,28,14,15,20.20
2020,06,28,14,16,20.30
2020,06,28,14,17,20.30
2020,06,28,14,18,20.40
2020,06,28,14,19,20.60
2020,06,28,14,20,20.60
2020,06,28,14,21,20.50
2020,06,28,14,22,20.50
2020,06,28,14,23,20.40
2020,06,28,14,24,20.40
2020,06,28,14,25,20.50
2020,06,28,14,26,20.60
2020,06,28,14,27,20.70
2020,06,28,14,28,20.70
2020,06,28,14,29,20.80
2020,06,28,14,30,20.80
2020,06,28,14,31,20.80
2020,06,28,14,32,20.90
2020,06,28,14,33,20.90
2020,06,28,14,34,21.00
2020,06,28,14,35,21.10
2020,06,28,14,36,21.10
2020,06,28,14,37,21.20
2020,06,28,14,38,21.30
2020,06,28,14,39,21.50
2020,06,28,14,40,21.60
2020,06,28,14,41,21.70
2020,06,28,14,42,21.80
2020,06,28,14,43,21.90
2020,06,28,14,44,21.90
2020,06,28,14,45,21.90
2020,06,28,14,46,22.00
2020,06,28,14,47,22.00
2020,06,28,14,48,22.00
2020,06,28,14,49,22.00
2020,06,28,14,50,22.10
2020,06,28,14,51,22.20
2020,06,28,14,52,22.30
2020,06,28,14,53,22.30
2020,06,28,14,54,22.30
2020,06,28,14,55,22.30
2020,06,28,14,56,22.30
2020,06,28,14,57,22.30
2020,06,28,14,58,22.30
2020,06,28,14,59,22.40
2020,06,28,15,00,22.40
2020,06,28,15,01,22.40
2020,06,28,15,02,22.40
2020,06,28,15,03,22.30
2020,06,28,15,04,22.30
2020,06,28,15,05,22.30
2020,06,28,15,06,22.30
2020,06,28,15,07,22.20
2020,06,28,15,08,22.00
2020,06,28,15,09,21.90
2020,06,28,15,10,21.80
2020,06,28,15,11,21.80
2020,06,28,15,12,21.80
2020,06,28,15,13,21.80
2020,06,28,15,14,21.80
2020,06,28,15,15,21.80
2020,06,28,15,16,21.80
2020,06,28,15,17,21.70
2020,06,28,15,18,21.70
2020,06,28,15,19,21.70
2020,06,28,15,20,21.70
2020,06,28,15,21,21.70
2020,06,28,15,22,21.70
2020,06,28,15,23,21.80
2020,06,28,15,24,21.80
2020,06,28,15,25,21.80
2020,06,28,15,26,21.90
2020,06,28,15,27,22.00
2020,06,28,15,28,22.10
2020,06,28,15,29,22.00
2020,06,28,15,30,21.80
2020,06,28,15,31,21.60
2020,06,28,15,32,21.40
2020,06,28,15,33,21.20
2020,06,28,15,34,21.20
2020,06,28,15,35,21.20
2020,06,28,15,36,21.10
2020,06,28,15,37,21.00
2020,06,28,15,38,21.00
2020,06,28,15,39,20.90
2020,06,28,15,40,20.90
2020,06,28,15,41,20.80
2020,06,28,15,42,20.90
2020,06,28,15,43,20.90
2020,06,28,15,44,21.00
2020,06,28,15,45,21.10
2020,06,28,15,46,21.10
2020,06,28,15,47,21.10
2020,06,28,15,48,21.20
2020,06,28,15,49,21.20
2020,06,28,15,50,21.30
2020,06,28,15,51,21.30
2020,06,28,15,52,21.40
2020,06,28,15,53,21.40
2020,06,28,15,54,21.50
2020,06,28,15,55,21.40
2020,06,28,15,56,21.50
2020,06,28,15,57,21.50
2020,06,28,15,58,21.50
2020,06,28,15,59,21.40
2020,06,28,16,00,21.40
2020,06,28,16,01,21.40
2020,06,28,16,02,21.50
2020,06,28,16,03,21.50
2020,06,28,16,04,21.60
2020,06,28,16,05,21.70
2020,06,28,16,06,21.80
2020,06,28,16,07,21.90
2020,06,28,16,08,22.00
2020,06,28,16,09,22.00
2020,06,28,16,10,21.90
2020,06,28,16,11,21.80
2020,06,28,16,12,21.80
2020,06,28,16,13,21.70
2020,06,28,16,14,21.70
2020,06,28,16,15,21.70
2020,06,28,16,16,21.60
2020,06,28,16,17,21.60
2020,06,28,16,18,21.70
2020,06,28,16,19,21.80
2020,06,28,16,20,21.80
2020,06,28,16,21,21.90
2020,06,28,16,22,22.00
2020,06,28,16,23,22.10
2020,06,28,16,24,22.10
2020,06,28,16,25,22.10
2020,06,28,16,26,22.10
2020,06,28,16,27,22.10
2020,06,28,16,28,22.10
2020,06,28,16,29,22.20
2020,06,28,16,30,22.20
2020,06,28,16,31,22.20
2020,06,28,16,32,22.20
2020,06,28,16,33,22.20
2020,06,28,16,34,22.20
2020,06,28,16,35,22.20
2020,06,28,16,36,22.30
2020,06,28,16,37,22.30
2020,06,28,16,38,22.40
2020,06,28,16,39,22.50
2020,06,28,16,40,22.60
2020,06,28,16,41,22.70
2020,06,28,16,42,22.80
2020,06,28,16,43,22.80
2020,06,28,16,44,22.90
2020,06,28,16,45,22.80
2020,06,28,16,46,22.80
2020,06,28,16,47,22.80
2020,06,28,16,48,22.80
2020,06,28,16,49,22.80
2020,06,28,16,50,22.80
2020,06,28,16,51,22.80
2020,06,28,16,52,22.70
2020,06,28,16,53,22.60
2020,06,28,16,54,22.60
2020,06,28,16,55,22.60
2020,06,28,16,56,22.60
2020,06,28,16,57,22.60
2020,06,28,16,58,22.70
2020,06,28,16,59,22.70
2020,06,28,17,00,22.70
2020,06,28,17,01,22.70
2020,06,28,17,02,22.70
2020,06,28,17,03,22.60
2020,06,28,17,04,22.50
2020,06,28,17,05,22.40
2020,06,28,17,06,22.30
2020,06,28,17,07,22.30
2020,06,28,17,08,22.30
2020,06,28,17,09,22.30
2020,06,28,17,10,22.30
2020,06,28,17,11,22.30
2020,06,28,17,12,22.30
2020,06,28,17,13,22.30
2020,06,28,17,14,22.30
2020,06,28,17,15,22.20
2020,06,28,17,16,22.20
2020,06,28,17,17,22.20
2020,06,28,17,18,22.20
2020,06,28,17,19,22.20
2020,06,28,17,20,22.10
2020,06,28,17,21,22.00
2020,06,28,17,22,22.00
2020,06,28,17,23,21.90
2020,06,28,17,24,21.80
2020,06,28,17,25,21.80
2020,06,28,17,26,21.70
2020,06,28,17,27,21.60
2020,06,28,17,28,21.60
2020,06,28,17,29,21.50